Weather History for KPLU - November, 2013

Change the Weather History Date:

Saturday, November 16, 2013

  Actual Average (KTCM) Record (KTCM)
Temperature  
Mean Temperature 42 °F -  
Max Temperature 44 °F 49 °F 63 °F (1976)
Min Temperature 39 °F 35 °F 18 °F (2014)
Degree Days  
Heating Degree Days 24    
Moisture  
Dew Point 38 °F    
Average Humidity 85    
Maximum Humidity 93    
Minimum Humidity 76    
Precipitation  
Precipitation 0.00 in - - ()
Sea Level Pressure  
Sea Level Pressure 29.60 in    
Wind  
Wind Speed 8 mph (SW)    
Max Wind Speed 14 mph    
Max Gust Speed 23 mph    
Visibility 10 miles    
Events      
Averages and records for this station are not official NWS values.
T = Trace of Precipitation, MM = Missing Value Source: NWS Daily Summary

Daily Weather History Graph

Daily Weather History Graph

Search for Another Location

Airport or City:

Trip Planner

Search our weather history database for the weather conditions in past years. The results will help you decide how hot, cold, wet, or windy it might be!

Date:

Astronomy

Nov. 16, 2013 Rise Set
Actual Time 7:14 AM PST 4:32 PM PST
Civil Twilight 6:41 AM PST 5:06 PM PST
Nautical Twilight 6:04 AM PST 5:43 PM PST
Astronomical Twilight 5:28 AM PST 6:19 PM PST
Moon 4:13 PM PST (11/16) 6:13 AM PST (11/16)
Length of Visible Light 10h 24m
Length of Day
9h 17m
Waxing Gibbous, 99% of the Moon is Illuminated
Nov 16
Waxing Gibbous
Nov 17
Full
Nov 25
Last Quarter
Dec 2
New
Dec 9
First Quarter

Hourly Weather History & Observations

Time (PST) Temp. Windchill Dew Point Humidity Pressure Visibility Wind Dir Wind Speed Gust Speed Precip Events Conditions
12:15 AM 44.6 °F 38.1 °F 41.0 °F 87% 29.41 in 10.0 mi SW 13.8 mph 20.7 mph N/A   Unknown
12:35 AM 44.6 °F 38.4 °F 41.0 °F 87% 29.40 in 10.0 mi SW 12.7 mph 20.7 mph N/A   Unknown
12:55 AM 42.8 °F 37.0 °F 39.2 °F 87% 29.41 in 10.0 mi SW 10.4 mph 23.0 mph N/A   Unknown
1:15 AM 42.8 °F 36.6 °F 39.2 °F 87% 29.41 in 10.0 mi WSW 11.5 mph 21.9 mph N/A   Unknown
1:35 AM 42.8 °F 39.3 °F 39.2 °F 87% 29.41 in 10.0 mi SW 5.8 mph 16.1 mph N/A   Unknown
1:55 AM 42.8 °F 35.8 °F 39.2 °F 87% 29.40 in 10.0 mi WSW 13.8 mph 17.3 mph N/A   Unknown
2:15 AM 41.0 °F 33.5 °F 39.2 °F 93% 29.41 in 10.0 mi SW 13.8 mph 21.9 mph N/A   Unknown
2:35 AM 41.0 °F 35.2 °F 39.2 °F 93% 29.43 in 10.0 mi SW 9.2 mph 18.4 mph N/A   Unknown
2:55 AM 41.0 °F 35.2 °F 39.2 °F 93% 29.44 in 10.0 mi WSW 9.2 mph 16.1 mph N/A   Unknown
3:15 AM 41.0 °F 35.2 °F 39.2 °F 93% 29.44 in 10.0 mi WSW 9.2 mph - N/A   Unknown
3:35 AM 41.0 °F 37.1 °F 37.4 °F 87% 29.44 in 10.0 mi SW 5.8 mph - N/A   Unknown
3:55 AM 41.0 °F 38.0 °F 37.4 °F 87% 29.44 in 10.0 mi SW 4.6 mph - N/A   Unknown
4:15 AM 41.0 °F 39.0 °F 37.4 °F 87% 29.45 in 10.0 mi SW 3.5 mph - N/A   Unknown
4:35 AM 41.0 °F - 37.4 °F 87% 29.47 in 10.0 mi Calm Calm - N/A   Unknown
4:55 AM 39.2 °F - 37.4 °F 93% 29.48 in 10.0 mi Calm Calm - N/A   Unknown
5:15 AM 39.2 °F - 35.6 °F 87% 29.49 in 10.0 mi Calm Calm - N/A   Unknown
5:35 AM 39.2 °F - 35.6 °F 87% 29.49 in 10.0 mi Calm Calm - N/A   Unknown
5:55 AM 39.2 °F - 37.4 °F 93% 29.50 in 10.0 mi Calm Calm - N/A   Unknown
6:15 AM 39.2 °F 35.9 °F 37.4 °F 93% 29.50 in 10.0 mi SSW 4.6 mph - N/A   Unknown
6:35 AM 39.2 °F 37.0 °F 37.4 °F 93% 29.51 in 10.0 mi SSW 3.5 mph - N/A   Unknown
6:55 AM 39.2 °F 35.0 °F 37.4 °F 93% 29.52 in 10.0 mi South 5.8 mph - N/A   Unknown
7:15 AM 39.2 °F 35.9 °F 37.4 °F 93% 29.53 in 10.0 mi South 4.6 mph - N/A   Unknown
7:35 AM 39.2 °F 35.0 °F 37.4 °F 93% 29.53 in 10.0 mi South 5.8 mph - N/A   Unknown
7:55 AM 39.2 °F 37.0 °F 35.6 °F 87% 29.54 in 10.0 mi South 3.5 mph - N/A   Unknown
8:15 AM 39.2 °F 35.9 °F 37.4 °F 93% 29.55 in 10.0 mi SSW 4.6 mph - N/A   Unknown
8:35 AM 41.0 °F 37.1 °F 37.4 °F 87% 29.56 in 10.0 mi SSW 5.8 mph - N/A   Unknown
8:55 AM 41.0 °F 36.4 °F 37.4 °F 87% 29.57 in 10.0 mi South 6.9 mph - N/A   Unknown
9:15 AM 41.0 °F 36.4 °F 37.4 °F 87% 29.57 in 10.0 mi South 6.9 mph - N/A   Unknown
9:35 AM 41.0 °F 38.0 °F 37.4 °F 87% 29.58 in 10.0 mi South 4.6 mph - N/A   Unknown
9:55 AM 44.6 °F 40.2 °F 37.4 °F 76% 29.58 in 10.0 mi SSW 8.1 mph - N/A   Unknown
10:15 AM 44.6 °F 40.2 °F 37.4 °F 76% 29.59 in 10.0 mi SSW 8.1 mph - N/A   Unknown
10:35 AM 44.6 °F 39.7 °F 39.2 °F 81% 29.60 in 10.0 mi SW 9.2 mph - N/A   Unknown
10:55 AM 44.6 °F 39.7 °F 37.4 °F 76% 29.61 in 10.0 mi SW 9.2 mph 17.3 mph N/A   Unknown
11:15 AM 44.6 °F 39.7 °F 37.4 °F 76% 29.61 in 10.0 mi SW 9.2 mph 18.4 mph N/A   Unknown
11:35 AM 44.6 °F 39.7 °F 37.4 °F 76% 29.61 in 10.0 mi SW 9.2 mph 16.1 mph N/A   Unknown
11:55 AM 44.6 °F 39.7 °F 37.4 °F 76% 29.61 in 10.0 mi SW 9.2 mph 16.1 mph N/A   Unknown
12:15 PM 44.6 °F 38.8 °F 37.4 °F 76% 29.61 in 10.0 mi SSW 11.5 mph 18.4 mph N/A   Unknown
12:35 PM 44.6 °F 42.2 °F 37.4 °F 76% 29.61 in 10.0 mi SSW 4.6 mph 20.7 mph N/A   Unknown
12:55 PM 44.6 °F 40.2 °F 37.4 °F 76% 29.62 in 10.0 mi SW 8.1 mph - N/A   Unknown
1:15 PM 44.6 °F 39.7 °F 37.4 °F 76% 29.62 in 10.0 mi SSW 9.2 mph 18.4 mph N/A   Unknown
1:35 PM 44.6 °F 38.8 °F 39.2 °F 81% 29.62 in 10.0 mi SW 11.5 mph 18.4 mph N/A   Unknown
1:55 PM 44.6 °F 39.2 °F 39.2 °F 81% 29.63 in 10.0 mi SSW 10.4 mph 19.6 mph N/A   Unknown
2:15 PM 44.6 °F 39.7 °F 39.2 °F 81% 29.64 in 10.0 mi SSW 9.2 mph 18.4 mph N/A   Unknown
2:35 PM 44.6 °F 40.2 °F 39.2 °F 81% 29.65 in 10.0 mi SW 8.1 mph - N/A   Unknown
2:55 PM 44.6 °F 40.2 °F 39.2 °F 81% 29.65 in 10.0 mi SW 8.1 mph 19.6 mph N/A   Unknown
3:15 PM 44.6 °F 39.7 °F 39.2 °F 81% 29.65 in 10.0 mi SSW 9.2 mph - N/A   Unknown
3:35 PM 44.6 °F - 39.2 °F 81% 29.66 in 10.0 mi Calm Calm - N/A   Unknown
3:55 PM 42.8 °F 39.3 °F 39.2 °F 87% 29.67 in 10.0 mi South 5.8 mph - N/A   Unknown
4:15 PM 42.8 °F 40.1 °F 39.2 °F 87% 29.67 in 10.0 mi South 4.6 mph - N/A   Unknown
4:35 PM 44.6 °F - 39.2 °F 81% 29.67 in 10.0 mi Calm Calm - N/A   Unknown
4:55 PM 44.6 °F 41.4 °F 39.2 °F 81% 29.68 in 10.0 mi SW 5.8 mph - N/A   Unknown
5:15 PM 44.6 °F 41.4 °F 39.2 °F 81% 29.68 in 10.0 mi SSW 5.8 mph - N/A   Unknown
5:35 PM 42.8 °F 38.6 °F 39.2 °F 87% 29.68 in 10.0 mi SW 6.9 mph - N/A   Unknown
5:55 PM 42.8 °F 37.5 °F 37.4 °F 81% 29.69 in 10.0 mi SSW 9.2 mph - N/A   Unknown
6:15 PM 42.8 °F 40.1 °F 39.2 °F 87% 29.70 in 10.0 mi SSW 4.6 mph - N/A   Unknown
6:35 PM 42.8 °F 37.5 °F 39.2 °F 87% 29.70 in 10.0 mi SSW 9.2 mph - N/A   Unknown
6:55 PM 42.8 °F 38.6 °F 39.2 °F 87% 29.71 in 10.0 mi SW 6.9 mph - N/A   Unknown
7:15 PM 42.8 °F 39.3 °F 39.2 °F 87% 29.72 in 10.0 mi SW 5.8 mph - N/A   Unknown
7:35 PM 42.8 °F 37.5 °F 39.2 °F 87% 29.73 in 10.0 mi SW 9.2 mph - N/A   Unknown
7:55 PM 42.8 °F 38.0 °F 39.2 °F 87% 29.73 in 10.0 mi SW 8.1 mph - N/A   Unknown
8:15 PM 42.8 °F 38.0 °F 39.2 °F 87% 29.74 in 10.0 mi SW 8.1 mph - N/A   Unknown
8:35 PM 42.8 °F 38.6 °F 39.2 °F 87% 29.75 in 10.0 mi WSW 6.9 mph - N/A   Unknown
8:55 PM 42.8 °F 40.1 °F 39.2 °F 87% 29.76 in 10.0 mi WSW 4.6 mph - N/A   Unknown
9:15 PM 42.8 °F 39.3 °F 39.2 °F 87% 29.76 in 10.0 mi SW 5.8 mph - N/A   Unknown
9:35 PM 42.8 °F 39.3 °F 39.2 °F 87% 29.77 in 10.0 mi SW 5.8 mph - N/A   Unknown
9:55 PM 42.8 °F 38.0 °F 39.2 °F 87% 29.77 in 10.0 mi SSW 8.1 mph - N/A   Unknown
10:15 PM 42.8 °F 40.1 °F 37.4 °F 81% 29.77 in 10.0 mi SSW 4.6 mph - N/A   Unknown
10:35 PM 42.8 °F 38.6 °F 37.4 °F 81% 29.78 in 10.0 mi SSW 6.9 mph - N/A   Unknown
10:55 PM 42.8 °F 38.0 °F 37.4 °F 81% 29.79 in 10.0 mi SSW 8.1 mph - N/A   Unknown
11:15 PM 41.0 °F 38.0 °F 37.4 °F 87% 29.80 in 10.0 mi SW 4.6 mph - N/A   Unknown
11:35 PM 41.0 °F 38.0 °F 37.4 °F 87% 29.80 in 10.0 mi SSW 4.6 mph - N/A   Unknown
11:55 PM 41.0 °F 37.1 °F 37.4 °F 87% 29.80 in 10.0 mi SSW 5.8 mph - N/A   Unknown